Tracking 22879 objects as of 20-Apr-2021
HD Live streaming from Space Station
objects crossing your sky now

TOPO 1

Track TOPO 1 now!
10-day predictions
TOPO 1 is classified as:


NORAD ID: 4363
Int'l Code: 1970-025B
Perigee: 1,091.0 km
Apogee: 1,093.0 km
Inclination: 99.9 °
Period: 106.9 minutes
Semi major axis: 7462 km
RCS: 0.1794 m2 (medium)
Launch date: April 8, 1970
Source: United States (US)
Launch site: AIR FORCE WESTERN TEST RANGE (AFWTR)
aabbcc
Your satellite tracking list
Your tracking list is empty




NASA's NSSDC Master Catalog

Two Line Element Set (TLE):
1  4363U 70025B   21110.18715172 -.00000038  00000-0  11523-4 0  9995
2  4363  99.9425  19.5954 0001315 305.1657 223.6249 13.46590401508077
Source of the keplerian elements: AFSPC